DLH2HL EDDM-EDDH

Flight info

Callsign DLH2HL
Flight time 1h 1m
Altitude 36000
Route INPUD2S INPUD Y102 UPALA M726 NARUS DCT ABGUS DCT DIRBO/N0361F230 T902 RARUP RARUP6A
Aircraft A319/M-SDE2E3FGIJ1LORWXYZ/HB1

Departure

Time 2026-05-07 18:30
Airport Munich Airport (EDDM)

Arrival

Time 2026-05-07 19:31
Airport Hamburg Helmut Schmidt Airport (EDDH)
Time Latitude Longitude Altitude Speed Heading
2026-05-07 17:53 48.35587 11.79988 1486 ft 0 kts 263°
2026-05-07 18:16 48.35587 11.79995 1486 ft 3 kts 263°
2026-05-07 18:17 48.35591 11.80030 1473 ft 4 kts 263°
2026-05-07 18:17 48.35593 11.80061 1477 ft 2 kts 284°
2026-05-07 18:17 48.35588 11.80077 1474 ft 2 kts 341°
2026-05-07 18:17 48.35577 11.80081 1475 ft 2 kts 351°
2026-05-07 18:18 48.35573 11.80082 1472 ft 0 kts 351°
2026-05-07 18:20 48.35586 11.80079 1473 ft 4 kts 351°
2026-05-07 18:20 48.35620 11.80071 1485 ft 6 kts 353°
2026-05-07 18:20 48.35672 11.80069 1485 ft 8 kts 12°
2026-05-07 18:20 48.35743 11.80073 1483 ft 12 kts 355°
2026-05-07 18:21 48.35808 11.80007 1476 ft 15 kts 279°
2026-05-07 18:21 48.35798 11.79837 1483 ft 17 kts 264°
2026-05-07 18:21 48.35785 11.79676 1485 ft 13 kts 263°
2026-05-07 18:21 48.35783 11.79645 1485 ft 0 kts 264°
2026-05-07 18:22 48.35781 11.79623 1485 ft 6 kts 263°
2026-05-07 18:22 48.35783 11.79562 1482 ft 12 kts 288°
2026-05-07 18:22 48.35909 11.79511 1477 ft 15 kts 352°
2026-05-07 18:22 48.36000 11.79495 1486 ft 3 kts 355°
2026-05-07 18:23 48.36001 11.79494 1486 ft 0 kts 355°
2026-05-07 18:25 48.36005 11.79494 1475 ft 3 kts 355°
2026-05-07 18:25 48.36071 11.79483 1481 ft 16 kts 353°
2026-05-07 18:26 48.36191 11.79473 1475 ft 17 kts 18°
2026-05-07 18:26 48.36228 11.79647 1485 ft 19 kts 83°
2026-05-07 18:26 48.36243 11.79854 1485 ft 20 kts 83°
2026-05-07 18:26 48.36261 11.80073 1485 ft 23 kts 83°
2026-05-07 18:27 48.36278 11.80318 1485 ft 24 kts 83°
2026-05-07 18:27 48.36299 11.80580 1485 ft 26 kts 83°
2026-05-07 18:27 48.36321 11.80848 1485 ft 26 kts 84°
2026-05-07 18:27 48.36339 11.81116 1473 ft 25 kts 83°
2026-05-07 18:28 48.36419 11.81178 1481 ft 16 kts 300°
2026-05-07 18:28 48.36465 11.81020 1478 ft 17 kts 292°
2026-05-07 18:28 48.36513 11.80850 1474 ft 18 kts 292°
2026-05-07 18:28 48.36583 11.80739 1479 ft 7 kts 277°
2026-05-07 18:29 48.36582 11.80731 1483 ft 3 kts 266°
2026-05-07 18:29 48.36549 11.80279 1485 ft 83 kts 263°
2026-05-07 18:29 48.36453 11.79068 1480 ft 147 kts 263°
2026-05-07 18:29 48.36328 11.77458 1957 ft 155 kts 265°
2026-05-07 18:30 48.36216 11.75833 2679 ft 156 kts 266°
2026-05-07 18:30 48.36097 11.74105 3140 ft 176 kts 265°
2026-05-07 18:30 48.35962 11.72204 3583 ft 194 kts 265°
2026-05-07 18:30 48.35805 11.70023 3926 ft 222 kts 265°
2026-05-07 18:31 48.35762 11.67652 4722 ft 230 kts 282°
2026-05-07 18:31 48.36592 11.65614 5583 ft 240 kts 319°
2026-05-07 18:31 48.38174 11.64478 6179 ft 263 kts 343°
2026-05-07 18:31 48.40013 11.63935 6857 ft 274 kts 348°
2026-05-07 18:32 48.41908 11.63580 6989 ft 273 kts 351°
2026-05-07 18:32 48.43780 11.63268 7049 ft 273 kts 350°
2026-05-07 18:32 48.45670 11.62896 7057 ft 273 kts 348°
2026-05-07 18:32 48.47546 11.62455 7058 ft 272 kts 347°
2026-05-07 18:33 48.49433 11.61956 7350 ft 280 kts 346°
2026-05-07 18:33 48.51290 11.61149 8435 ft 276 kts 335°
2026-05-07 18:33 48.53100 11.60122 9463 ft 279 kts 335°
2026-05-07 18:33 48.54921 11.59102 10333 ft 286 kts 335°
2026-05-07 18:34 48.56871 11.58003 10722 ft 310 kts 336°
2026-05-07 18:34 48.58937 11.56856 11377 ft 320 kts 336°
2026-05-07 18:34 48.61052 11.55706 12204 ft 326 kts 338°
2026-05-07 18:34 48.63297 11.54936 13023 ft 334 kts 348°
2026-05-07 18:35 48.65608 11.54426 13878 ft 338 kts 349°
2026-05-07 18:35 48.67945 11.53916 14618 ft 341 kts 348°
2026-05-07 18:35 48.70280 11.53404 15367 ft 344 kts 348°
2026-05-07 18:35 48.72661 11.52882 16119 ft 347 kts 348°
2026-05-07 18:36 48.75074 11.52354 16867 ft 350 kts 348°
2026-05-07 18:36 48.77499 11.51823 17617 ft 353 kts 348°
2026-05-07 18:36 48.79948 11.51286 18352 ft 356 kts 348°
2026-05-07 18:36 48.82379 11.50750 18992 ft 359 kts 348°
2026-05-07 18:37 48.84869 11.50205 19637 ft 362 kts 348°
2026-05-07 18:37 48.87382 11.49658 20282 ft 366 kts 348°
2026-05-07 18:37 48.89920 11.49104 20927 ft 369 kts 348°
2026-05-07 18:37 48.92497 11.48538 21570 ft 372 kts 349°
2026-05-07 18:38 48.95056 11.47973 22190 ft 376 kts 349°
2026-05-07 18:38 48.97651 11.47399 22808 ft 379 kts 349°
2026-05-07 18:38 49.00281 11.46818 23434 ft 383 kts 349°
2026-05-07 18:38 49.02931 11.46236 23987 ft 386 kts 349°
2026-05-07 18:39 49.05573 11.45656 24484 ft 389 kts 349°
2026-05-07 18:39 49.08263 11.45061 24992 ft 392 kts 349°
2026-05-07 18:39 49.10983 11.44456 25503 ft 395 kts 349°
2026-05-07 18:39 49.13714 11.43848 26005 ft 398 kts 349°
2026-05-07 18:40 49.16349 11.43262 26483 ft 400 kts 349°
2026-05-07 18:40 49.19118 11.42650 26965 ft 403 kts 349°
2026-05-07 18:40 49.21902 11.42033 27450 ft 406 kts 349°
2026-05-07 18:40 49.24704 11.41410 27929 ft 408 kts 349°
2026-05-07 18:41 49.27524 11.40784 28420 ft 411 kts 349°
2026-05-07 18:41 49.30324 11.40159 28886 ft 413 kts 349°
2026-05-07 18:41 49.33179 11.39518 29342 ft 416 kts 349°
2026-05-07 18:41 49.36092 11.38862 29799 ft 419 kts 349°
2026-05-07 18:42 49.38948 11.38222 30218 ft 422 kts 349°
2026-05-07 18:42 49.41868 11.37569 30572 ft 424 kts 349°
2026-05-07 18:42 49.44809 11.36912 30910 ft 428 kts 349°
2026-05-07 18:42 49.47765 11.36248 31245 ft 431 kts 349°
2026-05-07 18:43 49.50747 11.35605 31568 ft 434 kts 351°
2026-05-07 18:43 49.53767 11.35090 31955 ft 436 kts 352°
2026-05-07 18:43 49.56750 11.34678 32409 ft 436 kts 353°
2026-05-07 18:43 49.59772 11.34323 32857 ft 436 kts 354°
2026-05-07 18:44 49.62806 11.33998 33295 ft 436 kts 354°
2026-05-07 18:44 49.65843 11.33678 33723 ft 436 kts 354°
2026-05-07 18:44 49.68844 11.33345 34131 ft 437 kts 353°
2026-05-07 18:44 49.71871 11.32991 34469 ft 437 kts 353°
2026-05-07 18:45 49.74922 11.32621 34792 ft 438 kts 353°
2026-05-07 18:45 49.77956 11.32245 35095 ft 438 kts 353°
2026-05-07 18:45 49.81002 11.31864 35400 ft 439 kts 353°
2026-05-07 18:45 49.84058 11.31481 35692 ft 440 kts 353°
2026-05-07 18:46 49.87120 11.31103 35977 ft 440 kts 353°
2026-05-07 18:46 49.90140 11.30735 36252 ft 441 kts 353°
2026-05-07 18:46 49.93212 11.30358 36529 ft 441 kts 353°
2026-05-07 18:46 49.96277 11.29985 36809 ft 442 kts 353°
2026-05-07 18:47 49.99350 11.29611 37079 ft 442 kts 353°
2026-05-07 18:47 50.02423 11.29236 37331 ft 443 kts 353°
2026-05-07 18:47 50.05469 11.28862 37580 ft 443 kts 353°
2026-05-07 18:47 50.08549 11.28480 37760 ft 444 kts 353°
2026-05-07 18:48 50.11628 11.28092 37895 ft 444 kts 353°
2026-05-07 18:48 50.14720 11.27700 38045 ft 445 kts 353°
2026-05-07 18:48 50.17805 11.27310 38068 ft 444 kts 353°
2026-05-07 18:49 50.23969 11.26538 38070 ft 444 kts 353°
2026-05-07 18:49 50.30095 11.25771 38068 ft 444 kts 353°
2026-05-07 18:50 50.35220 11.25127 38071 ft 443 kts 353°
2026-05-07 18:50 50.42412 11.24201 38075 ft 443 kts 353°
2026-05-07 18:51 50.48532 11.23424 38082 ft 444 kts 353°
2026-05-07 18:51 50.53653 11.22776 38085 ft 444 kts 353°
2026-05-07 18:52 50.59820 11.21994 38093 ft 444 kts 353°
2026-05-07 18:52 50.65888 11.21215 38092 ft 444 kts 353°
2026-05-07 18:53 50.72139 11.20415 38100 ft 444 kts 353°
2026-05-07 18:53 50.78295 11.19619 38101 ft 444 kts 353°
2026-05-07 18:54 50.84419 11.18829 38102 ft 444 kts 353°
2026-05-07 18:54 50.90590 11.18046 38101 ft 444 kts 353°
2026-05-07 18:55 50.96751 11.17246 38105 ft 444 kts 353°
2026-05-07 18:55 51.02909 11.16439 38103 ft 444 kts 353°
2026-05-07 18:56 51.09068 11.15635 38109 ft 443 kts 353°
2026-05-07 18:56 51.15185 11.14836 38102 ft 443 kts 353°
2026-05-07 18:57 51.21339 11.14031 38104 ft 443 kts 353°
2026-05-07 18:57 51.27499 11.13219 38112 ft 443 kts 353°
2026-05-07 18:58 51.33673 11.12411 38121 ft 443 kts 354°
2026-05-07 18:58 51.39797 11.11619 38126 ft 444 kts 353°
2026-05-07 18:59 51.45963 11.10801 38124 ft 444 kts 353°
2026-05-07 18:59 51.52094 11.09980 38060 ft 443 kts 353°
2026-05-07 18:59 51.55150 11.09574 37789 ft 438 kts 354°
2026-05-07 19:00 51.58183 11.09170 37523 ft 435 kts 354°
2026-05-07 19:00 51.61190 11.08768 37259 ft 433 kts 354°
2026-05-07 19:00 51.64195 11.08368 37001 ft 432 kts 354°
2026-05-07 19:00 51.67162 11.07975 36745 ft 432 kts 354°
2026-05-07 19:01 51.70162 11.07574 36492 ft 431 kts 354°
2026-05-07 19:01 51.73159 11.07174 36240 ft 430 kts 354°
2026-05-07 19:01 51.76147 11.06774 36077 ft 429 kts 354°
2026-05-07 19:02 51.82073 11.05971 36113 ft 430 kts 354°
2026-05-07 19:02 51.88041 11.05128 35923 ft 430 kts 353°
2026-05-07 19:02 51.91011 11.04576 35730 ft 430 kts 352°
2026-05-07 19:03 51.93989 11.03937 35240 ft 430 kts 351°
2026-05-07 19:03 51.96947 11.03256 34758 ft 427 kts 351°
2026-05-07 19:03 51.99886 11.02568 34286 ft 424 kts 351°
2026-05-07 19:03 52.02795 11.01903 33763 ft 421 kts 352°
2026-05-07 19:04 52.05687 11.01265 33209 ft 417 kts 352°
2026-05-07 19:04 52.08556 11.00652 32671 ft 414 kts 352°
2026-05-07 19:04 52.11373 11.00058 32152 ft 411 kts 352°
2026-05-07 19:04 52.14198 10.99465 31627 ft 408 kts 352°
2026-05-07 19:05 52.17011 10.98873 31117 ft 405 kts 352°
2026-05-07 19:05 52.19796 10.98279 30615 ft 402 kts 352°
2026-05-07 19:05 52.22559 10.97682 30102 ft 401 kts 352°
2026-05-07 19:05 52.25384 10.97070 29536 ft 416 kts 352°
2026-05-07 19:06 52.28272 10.96446 28948 ft 417 kts 352°
2026-05-07 19:06 52.34001 10.95209 27846 ft 413 kts 352°
2026-05-07 19:06 52.36840 10.94591 27299 ft 410 kts 352°
2026-05-07 19:07 52.39659 10.93976 26787 ft 407 kts 352°
2026-05-07 19:07 52.42450 10.93371 26262 ft 404 kts 352°
2026-05-07 19:07 52.45230 10.92768 25762 ft 401 kts 352°
2026-05-07 19:07 52.47991 10.92163 25266 ft 398 kts 351°
2026-05-07 19:08 52.50693 10.91567 24883 ft 395 kts 351°
2026-05-07 19:08 52.53432 10.90967 24642 ft 395 kts 351°
2026-05-07 19:08 52.56162 10.90370 24401 ft 394 kts 351°
2026-05-07 19:08 52.58878 10.89777 24167 ft 393 kts 351°
2026-05-07 19:09 52.61592 10.89183 23934 ft 392 kts 351°
2026-05-07 19:09 52.64293 10.88589 23699 ft 391 kts 351°
2026-05-07 19:09 52.66980 10.87996 23420 ft 390 kts 351°
2026-05-07 19:09 52.69665 10.87403 23137 ft 388 kts 351°
2026-05-07 19:10 52.72310 10.86818 22872 ft 387 kts 351°
2026-05-07 19:10 52.75004 10.86228 22596 ft 385 kts 351°
2026-05-07 19:10 52.77647 10.85647 22328 ft 384 kts 351°
2026-05-07 19:10 52.80255 10.85067 22062 ft 383 kts 351°
2026-05-07 19:11 52.82887 10.84478 21801 ft 381 kts 351°
2026-05-07 19:11 52.85523 10.83904 21534 ft 380 kts 352°
2026-05-07 19:11 52.88139 10.83366 21265 ft 379 kts 352°
2026-05-07 19:11 52.90760 10.82848 20827 ft 378 kts 352°
2026-05-07 19:12 52.93374 10.82334 20320 ft 376 kts 352°
2026-05-07 19:12 52.95962 10.81821 19820 ft 373 kts 352°
2026-05-07 19:12 52.98546 10.81303 19327 ft 371 kts 352°
2026-05-07 19:12 53.01065 10.80793 18852 ft 369 kts 352°
2026-05-07 19:13 53.03606 10.80276 18373 ft 366 kts 352°
2026-05-07 19:13 53.06136 10.79756 17824 ft 364 kts 352°
2026-05-07 19:13 53.08642 10.79237 17292 ft 362 kts 352°
2026-05-07 19:13 53.11133 10.78720 16776 ft 360 kts 352°
2026-05-07 19:14 53.13606 10.78181 16242 ft 357 kts 349°
2026-05-07 19:14 53.15937 10.76828 15737 ft 354 kts 330°
2026-05-07 19:14 53.17872 10.74326 15225 ft 351 kts 312°
2026-05-07 19:14 53.19316 10.71060 14736 ft 349 kts 304°
2026-05-07 19:15 53.20665 10.67752 14257 ft 347 kts 304°
2026-05-07 19:15 53.22019 10.64419 13759 ft 346 kts 304°
2026-05-07 19:15 53.23368 10.61098 13220 ft 343 kts 304°
2026-05-07 19:15 53.24706 10.57812 12689 ft 341 kts 304°
2026-05-07 19:16 53.26050 10.54550 12170 ft 339 kts 304°
2026-05-07 19:16 53.27381 10.51319 11648 ft 336 kts 304°
2026-05-07 19:16 53.28690 10.48134 11263 ft 324 kts 304°
2026-05-07 19:16 53.29931 10.45105 11015 ft 305 kts 304°
2026-05-07 19:17 53.31104 10.42239 10757 ft 294 kts 304°
2026-05-07 19:17 53.32235 10.39470 10464 ft 290 kts 304°
2026-05-07 19:17 53.33372 10.36682 10117 ft 288 kts 304°
2026-05-07 19:17 53.34497 10.33908 9725 ft 287 kts 304°
2026-05-07 19:18 53.35612 10.31138 9324 ft 285 kts 304°
2026-05-07 19:18 53.36701 10.28418 8923 ft 284 kts 304°
2026-05-07 19:18 53.37793 10.25673 8527 ft 282 kts 304°
2026-05-07 19:18 53.38874 10.22944 8130 ft 280 kts 304°
2026-05-07 19:19 53.39947 10.20224 7714 ft 278 kts 304°
2026-05-07 19:19 53.41010 10.17518 7326 ft 277 kts 304°
2026-05-07 19:19 53.42065 10.14827 6923 ft 275 kts 304°
2026-05-07 19:19 53.43108 10.12152 6522 ft 273 kts 304°
2026-05-07 19:20 53.44143 10.09498 6202 ft 268 kts 304°
2026-05-07 19:20 53.45139 10.06937 6078 ft 255 kts 304°
2026-05-07 19:20 53.46082 10.04505 5914 ft 244 kts 304°
2026-05-07 19:20 53.46991 10.02159 5605 ft 241 kts 304°
2026-05-07 19:21 53.47908 9.99803 5251 ft 240 kts 303°
2026-05-07 19:21 53.48393 9.97170 5011 ft 238 kts 269°
2026-05-07 19:21 53.47954 9.94499 5012 ft 240 kts 240°
2026-05-07 19:21 53.47069 9.92105 5006 ft 241 kts 235°
2026-05-07 19:22 53.46136 9.89764 5006 ft 241 kts 234°
2026-05-07 19:22 53.45197 9.87435 5008 ft 241 kts 234°
2026-05-07 19:22 53.44266 9.85137 5010 ft 241 kts 234°
2026-05-07 19:22 53.43321 9.82811 5010 ft 241 kts 234°
2026-05-07 19:23 53.42376 9.80491 5008 ft 241 kts 234°
2026-05-07 19:23 53.41423 9.78157 5014 ft 241 kts 234°
2026-05-07 19:23 53.40474 9.75839 5010 ft 241 kts 234°
2026-05-07 19:23 53.39759 9.73311 4939 ft 243 kts 259°
2026-05-07 19:24 53.39868 9.70529 4604 ft 240 kts 291°
2026-05-07 19:24 53.40821 9.68307 4277 ft 235 kts 324°
2026-05-07 19:24 53.42304 9.67318 3935 ft 229 kts 358°
2026-05-07 19:24 53.43835 9.67757 3687 ft 220 kts 21°
2026-05-07 19:25 53.45242 9.68639 3564 ft 211 kts 24°
2026-05-07 19:25 53.46574 9.69511 3430 ft 204 kts 24°
2026-05-07 19:25 53.47873 9.70359 3296 ft 197 kts 24°
2026-05-07 19:25 53.49120 9.71240 3094 ft 193 kts 34°
2026-05-07 19:26 53.50088 9.72766 3014 ft 190 kts 53°
2026-05-07 19:26 53.50924 9.74443 3004 ft 181 kts 52°
2026-05-07 19:26 53.51716 9.76032 3006 ft 174 kts 53°
2026-05-07 19:26 53.52479 9.77562 3021 ft 172 kts 53°
2026-05-07 19:27 53.53252 9.79113 2783 ft 172 kts 53°
2026-05-07 19:27 53.54015 9.80645 2550 ft 170 kts 53°
2026-05-07 19:27 53.54540 9.81699 2397 ft 168 kts 53°
2026-05-07 19:27 53.55299 9.83225 2163 ft 166 kts 53°
2026-05-07 19:28 53.56038 9.84710 1932 ft 165 kts 53°
2026-05-07 19:28 53.56769 9.86180 1715 ft 162 kts 53°
2026-05-07 19:28 53.57474 9.87597 1498 ft 151 kts 53°
2026-05-07 19:28 53.58104 9.88862 1310 ft 133 kts 52°
2026-05-07 19:29 53.58676 9.90011 1081 ft 123 kts 52°
2026-05-07 19:29 53.59220 9.91115 912 ft 125 kts 51°
2026-05-07 19:29 53.59772 9.92226 748 ft 125 kts 51°
2026-05-07 19:29 53.60329 9.93346 575 ft 123 kts 51°
2026-05-07 19:30 53.60876 9.94460 416 ft 123 kts 51°
2026-05-07 19:30 53.61417 9.95554 263 ft 121 kts 51°
2026-05-07 19:30 53.61953 9.96633 96 ft 120 kts 51°
2026-05-07 19:30 53.62437 9.97611 40 ft 90 kts 50°
2026-05-07 19:31 53.62724 9.98193 43 ft 36 kts 50°
2026-05-07 19:31 53.62705 9.98409 45 ft 14 kts 140°
2026-05-07 19:31 53.62686 9.98435 46 ft 0 kts 140°
2026-05-07 19:31 53.62680 9.98449 47 ft 6 kts 125°
2026-05-07 19:32 53.62703 9.98578 47 ft 19 kts 51°
2026-05-07 19:32 53.62809 9.98789 47 ft 25 kts 51°
2026-05-07 19:32 53.62911 9.99002 47 ft 18 kts 51°
2026-05-07 19:32 53.62961 9.99104 47 ft 9 kts 51°
2026-05-07 19:33 53.63006 9.99193 47 ft 11 kts 49°
2026-05-07 19:33 53.63051 9.99287 47 ft 10 kts 54°
2026-05-07 19:33 53.63099 9.99401 47 ft 14 kts 55°
2026-05-07 19:33 53.63160 9.99546 46 ft 16 kts 51°
2026-05-07 19:34 53.63220 9.99668 48 ft 7 kts 50°
2026-05-07 19:34 53.63224 9.99676 48 ft 1 kts 52°
2026-05-07 19:34 53.63229 9.99703 48 ft 7 kts 83°
2026-05-07 19:34 53.63180 9.99796 47 ft 15 kts 149°
2026-05-07 19:35 53.63086 9.99877 48 ft 16 kts 155°
2026-05-07 19:35 53.62987 9.99963 48 ft 17 kts 152°
2026-05-07 19:35 53.62980 10.00096 48 ft 14 kts 28°
2026-05-07 19:35 53.63069 10.00184 48 ft 15 kts 28°
2026-05-07 19:36 53.63160 10.00206 45 ft 10 kts 54°
2026-05-07 19:36 53.63166 10.00330 48 ft 11 kts 86°
2026-05-07 19:36 53.63167 10.00361 48 ft 0 kts 86°